[[{"header":{"parameterUnit":"m.s-1","parameterCategory":2,"la1":30.2991,"la2":30.254,"lo1":-89.0895,"lo2":-89.0444,"dy":0.0017,"dx":0.0017,"nx":28,"ny":28,"refTime":"2024-03-01T09:00:00:Z","depth":"0","parameterNumber":2,"parameterNumberName":"U-component_of_CURRENTS"},"data":[0,0,0,0,0,0,0,0,0,0,0,0,0,0,0,0,0,0,0,0,0,0,0,0,0,0,0,0,0,0,0,0,0,0,0,0,0,0,0,0,0,0,0,0,0,0,0,0,0,0,0,0,0,0,0,0,0,0,-0.2408,-0.2408,0,-0.2396,-0.2396,-0.2396,-0.2394,-0.2394,-0.2395,-0.2395,-0.2411,-0.2412,-0.2412,0,0,0,0,0,0,0,0,0,0,0,0,0,-0.2353,-0.2355,-0.2408,-0.2408,-0.2408,-0.2396,-0.2396,-0.2396,-0.2394,-0.2394,-0.2395,-0.2395,-0.2411,-0.2412,-0.2412,0,0,0,0,0,0,0,0,0,0,0,0,0,-0.2362,-0.2355,-0.2408,-0.2406,-0.2406,-0.2396,-0.2396,-0.2396,-0.2394,-0.2394,-0.2395,-0.2395,-0.2411,-0.2412,-0.2412,-0.2409,0,0,-0.2413,-0.2413,0,0,0,0,0,0,0,0,-0.2362,-0.2364,-0.2407,-0.2406,-0.2406,-0.2397,-0.2383,-0.2402,-0.2394,-0.2398,-0.2395,-0.2395,-0.241,-0.241,-0.2406,-0.241,-0.2411,-0.2413,-0.2414,-0.2414,-0.2414,0,0,0,0,0,0,0,-0.2361,-0.2364,-0.2403,-0.2406,-0.2406,-0.238,-0.2382,-0.2386,-0.2403,-0.2398,-0.2398,-0.2397,-0.241,-0.2406,-0.2406,-0.2411,-0.2413,-0.2414,-0.2414,-0.2414,-0.2391,-0.239,0,0,0,0,0,0,-0.2368,-0.2364,-0.2403,-0.2402,-0.2385,-0.2381,-0.2383,-0.2399,-0.2402,-0.2402,-0.2397,-0.2397,-0.2405,-0.2406,-0.2407,-0.2401,-0.2414,-0.2414,-0.2414,-0.2391,-0.239,-0.2389,0,0,0,0,0,0,-0.2367,-0.2372,-0.2404,-0.2382,-0.2384,-0.2382,-0.24,-0.2399,-0.2396,-0.2401,-0.2402,-0.2395,-0.2405,-0.2407,-0.2411,-0.2402,-0.2414,-0.2415,-0.2393,-0.2391,-0.239,-0.2391,0,0,0,0,0,0,-0.2366,-0.2373,-0.238,-0.2384,-0.2386,-0.2398,-0.24,-0.2399,-0.2396,-0.2396,-0.24,-0.2401,-0.2405,-0.2411,-0.2412,-0.2403,-0.2415,-0.2394,-0.2392,-0.239,-0.2392,-0.239,-0.2388,0,0,0,0,0,-0.2364,-0.2369,-0.2381,-0.2385,-0.2399,-0.2398,-0.2397,-0.2395,-0.2395,-0.2393,-0.2397,-0.2401,-0.24,-0.2411,-0.2412,-0.2403,-0.2394,-0.2392,-0.239,-0.2393,-0.239,-0.2388,0,0,0,0,0,0,-0.2344,-0.2369,-0.2382,-0.2395,-0.2399,-0.2398,-0.239,-0.2394,-0.2394,-0.2393,-0.2401,-0.2402,-0.2397,-0.2399,-0.241,-0.2388,-0.2394,-0.2392,-0.2395,-0.2393,-0.2391,-0.2379,-0.2415,0,0,0,0,0,-0.2346,-0.2361,-0.2377,-0.2386,-0.2388,-0.2391,-0.2388,-0.2391,-0.2393,-0.2392,-0.2396,-0.2394,-0.2388,-0.2392,-0.2385,-0.2385,-0.2369,-0.2374,-0.2372,-0.2371,-0.2359,-0.2332,-0.2327,-0.2383,-0.2383,-0.2383,0,0,-0.2338,-0.2355,-0.2362,-0.2382,-0.2384,-0.2384,-0.2389,-0.2386,-0.2385,-0.2395,-0.2391,-0.2388,-0.2384,-0.2377,-0.2374,-0.2381,-0.2346,-0.2368,-0.2367,-0.2356,-0.233,-0.2324,-0.2319,-0.2382,-0.2382,-0.2382,0,0,-0.2324,-0.2348,-0.2352,-0.2361,-0.237,-0.2372,-0.2373,-0.2377,-0.2377,-0.2378,-0.2376,-0.2373,-0.2369,-0.2365,-0.2362,-0.2346,-0.2332,-0.2336,-0.2324,-0.2298,-0.2294,-0.2289,-0.2264,-0.2257,-0.234,-0.234,-0.234,0,-0.2314,-0.2326,-0.2349,-0.2356,-0.2355,-0.2368,-0.2363,-0.2368,-0.2372,-0.237,-0.2376,-0.2359,-0.2363,-0.2349,-0.2338,-0.2343,-0.2319,-0.234,-0.2297,-0.2292,-0.2288,-0.2262,-0.2255,-0.234,-0.234,-0.234,-0.234,0,-0.2303,-0.2313,-0.2312,-0.2331,-0.2337,-0.233,-0.2346,-0.2348,-0.235,-0.2354,-0.2342,-0.2345,-0.2335,-0.2332,-0.2331,-0.2298,-0.2288,-0.2295,-0.2307,-0.2282,-0.2257,-0.2249,-0.234,-0.234,-0.234,-0.234,0,0,-0.2259,-0.2298,-0.2293,-0.2287,-0.2319,-0.2307,-0.2325,-0.2325,-0.2311,-0.2329,-0.2301,-0.231,-0.231,-0.2305,-0.2303,-0.2281,-0.2236,-0.2269,-0.2267,-0.2249,-0.2166,-0.1996,-0.1972,-0.223,-0.2229,-0.2228,-0.2161,0,-0.2231,-0.2223,-0.2267,-0.2245,-0.2225,-0.2268,-0.2274,-0.2285,-0.2289,-0.2267,-0.2283,-0.2259,-0.2302,-0.228,-0.2273,-0.2237,-0.2214,-0.2252,-0.2186,-0.2184,-0.2041,-0.1956,-0.1798,-0.1709,-0.2154,-0.2153,-0.2152,0,-0.2177,-0.2179,-0.2154,-0.2171,-0.217,-0.2171,-0.2161,-0.2176,-0.2185,-0.2189,-0.22,-0.2207,-0.2199,-0.2214,-0.2188,-0.2206,-0.218,-0.2159,-0.2156,-0.1988,-0.1998,-0.1804,-0.1679,-0.1654,-0.214,-0.2141,-0.2142,0,-0.2054,-0.2085,-0.2052,-0.2058,-0.2091,-0.209,-0.2111,-0.2134,-0.2145,-0.2127,-0.2117,-0.2132,-0.2112,-0.2107,-0.2097,-0.2132,-0.2027,-0.2083,-0.1913,-0.1903,-0.1746,-0.1722,-0.1589,-0.2034,-0.2034,-0.2034,-0.2035,0,-0.1958,-0.1928,-0.1987,-0.1955,-0.1925,-0.1989,-0.1969,-0.1989,-0.2024,-0.2008,-0.2061,-0.2031,-0.2077,-0.2044,-0.2049,-0.1934,-0.2005,-0.1871,-0.1853,-0.1739,-0.1716,-0.1671,-0.1723,-0.2032,-0.2032,-0.2033,-0.2033,0,-0.1792,-0.1836,-0.1797,-0.1838,-0.1852,-0.1818,-0.1902,-0.1895,-0.1938,-0.191,-0.1907,-0.1944,-0.1881,-0.1903,-0.1858,-0.184,-0.1703,-0.1711,-0.1565,-0.1526,-0.1327,-0.1385,-0.1249,-0.1224,-0.1511,-0.1506,-0.1501,0,-0.1696,-0.166,-0.169,-0.168,-0.1694,-0.17,-0.1718,-0.1813,-0.1829,-0.1846,-0.1815,-0.1766,-0.1671,-0.1549,-0.1485,-0.1407,-0.1494,-0.1242,-0.127,-0.124,-0.1295,-0.1375,-0.1375,-0.1088,-0.108,-0.1075,-0.107,0,-0.1523,-0.1543,-0.1526,-0.1512,-0.1518,-0.154,-0.158,-0.1594,-0.1685,-0.1659,-0.1579,-0.1491,-0.1343,-0.1147,-0.1046,-0.1021,-0.1167,-0.1113,-0.1124,-0.0952,-0.0991,-0.0982,-0.1235,-0.1017,-0.1022,-0.1026,-0.1029,-0.1031,-0.1402,-0.1361,-0.1361,-0.1337,-0.135,-0.1353,-0.1328,-0.1384,-0.1367,-0.1288,-0.1304,-0.1073,-0.0894,-0.069,-0.0679,-0.0562,-0.0744,-0.0563,-0.064,-0.073,-0.0664,-0.0772,-0.0502,-0.0504,-0.0506,-0.0508,-0.0509,0,-0.1248,-0.123,-0.1202,-0.1171,-0.1134,-0.1192,-0.1213,-0.1172,-0.1087,-0.0993,-0.0859,-0.0518,-0.0319,-0.0248,-0.0118,-0.0104,-0.02,-0.0159,-0.0274,-0.0305,-0.0404,-0.034,0.0033,0.0033,0.0033,0.0033,0.0033,0.0033,-0.1164,-0.1089,-0.1082,-0.0965,-0.0947,-0.0857,-0.0836,-0.0784,-0.0708,-0.045,-0.0216,-0.0091,0.0037,0.0137,0.0157,0.012,-0.0004,0.0034,-0.0107,-0.0209,-0.0256,-0.0301,-0.0248,0.0137,0.0137,0.0049,0.0048,0.0047]},{"header":{"parameterUnit":"m.s-1","parameterCategory":2,"la1":30.2991,"la2":30.254,"lo1":-89.0895,"lo2":-89.0444,"dy":0.0017,"dx":0.0017,"nx":28,"ny":28,"refTime":"2024-03-01T09:00:00:Z","depth":"0","parameterNumber":3,"parameterNumberName":"V-component_of_CURRENTS"},"data":[0,0,0,0,0,0,0,0,0,0,0,0,0,0,0,0,0,0,0,0,0,0,0,0,0,0,0,0,0,0,0,0,0,0,0,0,0,0,0,0,0,0,0,0,0,0,0,0,0,0,0,0,0,0,0,0,0,0,-0.0492,-0.0491,0,-0.0341,-0.0339,-0.0338,-0.0255,-0.0254,-0.0254,-0.0254,-0.0061,-0.0056,-0.0051,0,0,0,0,0,0,0,0,0,0,0,0,0,-0.064,-0.0638,-0.0493,-0.0491,-0.0489,-0.0341,-0.0339,-0.0337,-0.0255,-0.0254,-0.0254,-0.0254,-0.0063,-0.0057,-0.0051,0,0,0,0,0,0,0,0,0,0,0,0,0,-0.0541,-0.0637,-0.0493,-0.043,-0.0423,-0.0342,-0.0339,-0.0337,-0.0255,-0.0254,-0.0254,-0.0254,-0.0064,-0.0057,-0.005,-0.0009,0,0,-0.0027,-0.0024,0,0,0,0,0,0,0,0,-0.0547,-0.0535,-0.0441,-0.0434,-0.0426,-0.0317,-0.032,-0.0225,-0.0255,-0.0318,-0.0254,-0.0254,-0.0143,-0.0129,-0.0101,-0.0,0.0008,-0.0026,-0.0022,-0.0019,-0.0017,0,0,0,0,0,0,0,-0.0554,-0.0541,-0.0432,-0.0439,-0.043,-0.0385,-0.0372,-0.0302,-0.0233,-0.0313,-0.0306,-0.029,-0.0139,-0.0109,-0.0096,0.0011,-0.0027,-0.002,-0.0015,-0.0012,0.0162,0.0162,0,0,0,0,0,0,-0.0577,-0.0548,-0.0437,-0.0428,-0.0487,-0.0383,-0.0368,-0.0352,-0.0234,-0.0217,-0.0291,-0.0287,-0.0122,-0.0105,-0.0089,-0.0053,-0.0019,-0.0012,-0.0007,0.0161,0.0162,0.0162,0,0,0,0,0,0,-0.0581,-0.0568,-0.0443,-0.0485,-0.0466,-0.0382,-0.0364,-0.0349,-0.0319,-0.0218,-0.0199,-0.0276,-0.0121,-0.0099,-0.003,-0.0044,-0.0008,-0.0002,0.0161,0.0161,0.0162,0.0032,0,0,0,0,0,0,-0.0585,-0.0571,-0.0564,-0.0486,-0.0464,-0.0401,-0.0364,-0.0346,-0.0309,-0.0303,-0.0199,-0.0181,-0.0119,-0.0042,-0.0023,-0.0033,0.0004,0.0161,0.0161,0.0162,0.0036,0.0028,0.002,0,0,0,0,0,-0.0591,-0.058,-0.0564,-0.055,-0.0458,-0.0401,-0.0385,-0.0324,-0.031,-0.0297,-0.023,-0.0184,-0.0027,-0.0036,-0.0013,-0.0022,0.0161,0.0161,0.0162,0.0039,0.0029,0.0021,0,0,0,0,0,0,-0.0631,-0.0568,-0.055,-0.0518,-0.0469,-0.0387,-0.0365,-0.0332,-0.0269,-0.0263,-0.0177,-0.0153,-0.0099,-0.0037,-0.0049,0.0031,0.0073,0.0078,-0.0028,-0.0036,-0.0044,-0.0084,0.001,0,0,0,0,0,-0.0641,-0.0623,-0.0556,-0.0533,-0.0513,-0.0445,-0.0414,-0.0377,-0.0312,-0.0284,-0.0216,-0.0141,-0.0079,-0.0041,0.0029,0.0076,0.0084,0.0085,0.0077,0.007,0.0054,0.0029,0.0016,0.0163,0.0163,0.0163,0,0,-0.065,-0.0614,-0.0602,-0.0542,-0.05,-0.0475,-0.0425,-0.0385,-0.0367,-0.0273,-0.0227,-0.0163,-0.0071,-0.0023,0.0007,0.0026,0.0037,0.0071,0.0063,0.0052,0.0028,0.0013,-0.0001,0.0163,0.0163,0.0163,0,0,-0.0667,-0.063,-0.0626,-0.0592,-0.0538,-0.0496,-0.0492,-0.0419,-0.0391,-0.0336,-0.0275,-0.0231,-0.0114,-0.0073,-0.0033,-0.0039,-0.0004,-0.0005,-0.0077,-0.0102,-0.0116,-0.0128,-0.0134,-0.0146,-0.001,-0.001,-0.001,0,-0.0682,-0.0667,-0.0614,-0.0603,-0.0586,-0.0515,-0.0513,-0.0468,-0.0385,-0.038,-0.0336,-0.0228,-0.0146,-0.0122,-0.0113,-0.0062,-0.0063,-0.0056,-0.0119,-0.013,-0.014,-0.0144,-0.0155,-0.0016,-0.0016,-0.0015,-0.0014,0,-0.0695,-0.0686,-0.068,-0.065,-0.0624,-0.0608,-0.0551,-0.0529,-0.0489,-0.0452,-0.042,-0.0325,-0.0269,-0.0234,-0.0163,-0.0191,-0.0164,-0.0133,-0.0111,-0.0164,-0.0163,-0.0172,-0.0025,-0.0023,-0.0021,-0.002,0,0,-0.0727,-0.0699,-0.0699,-0.0703,-0.0654,-0.0634,-0.0624,-0.0601,-0.061,-0.0541,-0.0558,-0.0455,-0.0423,-0.0375,-0.0304,-0.0312,-0.0365,-0.0253,-0.0251,-0.0288,-0.0418,-0.0281,-0.0277,-0.0356,-0.0358,-0.036,-0.039,0,-0.0758,-0.0763,-0.0742,-0.0752,-0.0749,-0.0711,-0.0712,-0.0687,-0.0651,-0.0644,-0.0589,-0.0558,-0.0471,-0.045,-0.0449,-0.0379,-0.0396,-0.036,-0.0335,-0.0334,-0.023,-0.0286,-0.0217,-0.0227,-0.0399,-0.04,-0.0401,0,-0.078,-0.0783,-0.0803,-0.0817,-0.0817,-0.0816,-0.0826,-0.0816,-0.0799,-0.0778,-0.0763,-0.0706,-0.0688,-0.0609,-0.0576,-0.0558,-0.0502,-0.0458,-0.0458,-0.0293,-0.0214,-0.0197,-0.0238,-0.0166,-0.0415,-0.0414,-0.0413,0,-0.082,-0.083,-0.0855,-0.0851,-0.0848,-0.087,-0.0873,-0.0864,-0.088,-0.087,-0.088,-0.0851,-0.0819,-0.0785,-0.0632,-0.0632,-0.0587,-0.0581,-0.0419,-0.0408,-0.0324,-0.0301,-0.0316,-0.0592,-0.0592,-0.0592,-0.0592,0,-0.0853,-0.0872,-0.0876,-0.0883,-0.0929,-0.0917,-0.097,-0.0962,-0.0984,-0.0989,-0.0953,-0.0927,-0.0862,-0.0794,-0.0699,-0.0557,-0.0642,-0.0447,-0.0414,-0.036,-0.0341,-0.0248,-0.0233,-0.0593,-0.0593,-0.0593,-0.0592,0,-0.0876,-0.0879,-0.0906,-0.0928,-0.0942,-0.0969,-0.1027,-0.1061,-0.1073,-0.108,-0.1085,-0.1016,-0.0898,-0.0803,-0.0703,-0.0613,-0.0446,-0.0435,-0.0351,-0.0307,-0.0108,-0.0102,-0.0097,-0.0021,-0.033,-0.0327,-0.0324,0,-0.0883,-0.0898,-0.0934,-0.0958,-0.0968,-0.1018,-0.1057,-0.1093,-0.1115,-0.1087,-0.108,-0.0988,-0.0835,-0.0647,-0.0489,-0.0343,-0.0294,-0.0208,-0.0194,-0.0095,-0.0067,-0.0089,-0.0028,-0.0147,-0.0143,-0.014,-0.0137,0,-0.0899,-0.0912,-0.0933,-0.098,-0.1021,-0.1072,-0.1115,-0.114,-0.1144,-0.1105,-0.0973,-0.0855,-0.0654,-0.0407,-0.0222,-0.0138,-0.0142,-0.0136,-0.0085,0.0036,0.0054,0.0146,-0.0118,-0.0109,-0.0112,-0.0114,-0.0116,-0.0117,-0.0907,-0.0927,-0.0956,-0.0996,-0.1044,-0.107,-0.1068,-0.1058,-0.1017,-0.0834,-0.0785,-0.0465,-0.031,-0.0016,0.0045,0.0191,0.0112,0.0224,0.0209,0.0165,0.0287,0.0117,0.0212,0.0211,0.021,0.0209,0.0209,0,-0.0905,-0.0929,-0.0971,-0.1004,-0.1033,-0.1059,-0.1063,-0.0989,-0.083,-0.0578,-0.0351,0.007,0.0249,0.0354,0.0474,0.0526,0.049,0.0536,0.0478,0.0515,0.0317,0.038,0.0579,0.0579,0.0579,0.0579,0.0579,0.0579,-0.0904,-0.0934,-0.0952,-0.0973,-0.0987,-0.0953,-0.0915,-0.0748,-0.0542,-0.004,0.0357,0.0616,0.0713,0.0647,0.0721,0.0735,0.0773,0.075,0.0773,0.0603,0.057,0.054,0.0603,0.0845,0.0845,0.0985,0.0986,0.0987]}],[{"header":{"parameterUnit":"m.s-1","parameterCategory":2,"la1":30.2991,"la2":30.254,"lo1":-89.0895,"lo2":-89.0444,"dy":0.0017,"dx":0.0017,"nx":28,"ny":28,"refTime":"2024-03-01T09:00:00:Z","depth":"2","parameterNumber":2,"parameterNumberName":"U-component_of_CURRENTS"},"data":[0,0,0,0,0,0,0,0,0,0,0,0,0,0,0,0,0,0,0,0,0,0,0,0,0,0,0,0,0,0,0,0,0,0,0,0,0,0,0,0,0,0,0,0,0,0,0,0,0,0,0,0,0,0,0,0,0,0,-0.1554,-0.1555,0,-0.1635,-0.1636,-0.1637,-0.1671,-0.1671,-0.1672,-0.1672,-0.1676,-0.1676,-0.1676,0,0,0,0,0,0,0,0,0,0,0,0,0,-0.1514,-0.1513,-0.1554,-0.1555,-0.1557,-0.1635,-0.1636,-0.1637,-0.1671,-0.1671,-0.1672,-0.1672,-0.1676,-0.1676,-0.1676,0,0,0,0,0,0,0,0,0,0,0,0,0,-0.1555,-0.1513,-0.1554,-0.1584,-0.1588,-0.1635,-0.1636,-0.1637,-0.1671,-0.1671,-0.1672,-0.1672,-0.1676,-0.1676,-0.1676,-0.1677,0,0,-0.1677,-0.1677,0,0,0,0,0,0,0,0,-0.1552,-0.1556,-0.1579,-0.1582,-0.1587,-0.1645,-0.1624,-0.1648,-0.1671,-0.1638,-0.1672,-0.1672,-0.166,-0.1661,-0.1675,-0.1677,-0.1678,-0.1677,-0.1677,-0.1677,-0.1677,0,0,0,0,0,0,0,-0.1549,-0.1553,-0.1585,-0.158,-0.1585,-0.1623,-0.1628,-0.1629,-0.1645,-0.1641,-0.1644,-0.1656,-0.1661,-0.1675,-0.1675,-0.1678,-0.1677,-0.1677,-0.1677,-0.1677,-0.1698,-0.1698,0,0,0,0,0,0,-0.1538,-0.155,-0.1582,-0.1587,-0.1571,-0.1624,-0.1629,-0.1625,-0.1647,-0.1651,-0.1656,-0.1657,-0.1675,-0.1675,-0.1675,-0.1682,-0.1677,-0.1677,-0.1677,-0.1698,-0.1698,-0.1699,0,0,0,0,0,0,-0.1537,-0.1539,-0.1579,-0.1573,-0.1581,-0.1624,-0.1619,-0.1626,-0.1643,-0.1659,-0.1662,-0.1665,-0.1675,-0.1675,-0.1684,-0.1682,-0.1677,-0.1678,-0.1697,-0.1698,-0.1698,-0.1692,0,0,0,0,0,0,-0.1535,-0.1538,-0.1547,-0.1571,-0.1581,-0.1603,-0.162,-0.1628,-0.1651,-0.1653,-0.1668,-0.1669,-0.1675,-0.1684,-0.1685,-0.1682,-0.1678,-0.1697,-0.1697,-0.1698,-0.1692,-0.1692,-0.1693,0,0,0,0,0,-0.1533,-0.1542,-0.1546,-0.1552,-0.1585,-0.1604,-0.1612,-0.1642,-0.1651,-0.1657,-0.1673,-0.1668,-0.169,-0.1685,-0.1685,-0.1683,-0.1696,-0.1697,-0.1698,-0.1691,-0.1692,-0.1693,0,0,0,0,0,0,-0.1534,-0.1548,-0.1552,-0.1567,-0.1581,-0.161,-0.1626,-0.1641,-0.1661,-0.1669,-0.1674,-0.1676,-0.1688,-0.1686,-0.1681,-0.1693,-0.1692,-0.1693,-0.1687,-0.1688,-0.1688,-0.1646,-0.1678,0,0,0,0,0,-0.1536,-0.1537,-0.1557,-0.1565,-0.1572,-0.1596,-0.1614,-0.1634,-0.1651,-0.1661,-0.1674,-0.1686,-0.1692,-0.169,-0.1705,-0.1703,-0.1673,-0.1703,-0.1704,-0.1704,-0.1671,-0.1631,-0.1624,-0.1702,-0.1702,-0.1702,0,0,-0.1535,-0.1545,-0.1546,-0.1565,-0.1577,-0.1592,-0.1606,-0.163,-0.1642,-0.1656,-0.1678,-0.1694,-0.1696,-0.1707,-0.171,-0.1701,-0.1672,-0.1705,-0.1706,-0.1672,-0.1631,-0.1623,-0.1616,-0.1703,-0.1703,-0.1702,0,0,-0.1531,-0.1541,-0.1542,-0.1555,-0.1582,-0.1599,-0.1602,-0.1635,-0.1647,-0.1675,-0.1685,-0.1682,-0.1717,-0.1697,-0.1694,-0.1699,-0.1686,-0.1726,-0.1682,-0.1645,-0.1637,-0.163,-0.16,-0.159,-0.1716,-0.1716,-0.1716,0,-0.1537,-0.1535,-0.1547,-0.1557,-0.1568,-0.1595,-0.1602,-0.1621,-0.1657,-0.1649,-0.1684,-0.1694,-0.17,-0.1664,-0.1676,-0.1694,-0.1683,-0.1679,-0.1642,-0.1634,-0.1627,-0.1598,-0.1586,-0.1716,-0.1716,-0.1716,-0.1716,0,-0.1533,-0.1539,-0.1539,-0.1552,-0.1567,-0.1579,-0.1601,-0.1618,-0.1645,-0.1653,-0.1649,-0.1662,-0.1654,-0.1667,-0.1675,-0.1626,-0.164,-0.1655,-0.1633,-0.1618,-0.1589,-0.1578,-0.1715,-0.1716,-0.1716,-0.1716,0,0,-0.1517,-0.1533,-0.1533,-0.1532,-0.1566,-0.1571,-0.1585,-0.1584,-0.1575,-0.1612,-0.1588,-0.1594,-0.1594,-0.1588,-0.1595,-0.1557,-0.1509,-0.1586,-0.1584,-0.1542,-0.1438,-0.1337,-0.1315,-0.1531,-0.1529,-0.1527,-0.1445,0,-0.1507,-0.1514,-0.1528,-0.153,-0.1531,-0.1553,-0.1555,-0.1562,-0.1577,-0.157,-0.1552,-0.1548,-0.1567,-0.157,-0.1533,-0.1527,-0.1477,-0.153,-0.1469,-0.1466,-0.1366,-0.1296,-0.1204,-0.1113,-0.1434,-0.1432,-0.1431,0,-0.1494,-0.15,-0.15,-0.15,-0.1501,-0.1511,-0.1502,-0.1511,-0.1498,-0.1507,-0.1486,-0.1495,-0.1444,-0.1478,-0.1405,-0.145,-0.1428,-0.1415,-0.1412,-0.1299,-0.1341,-0.1178,-0.108,-0.1411,-0.1413,-0.1414,-0.1415,0,-0.1459,-0.1473,-0.1466,-0.1472,-0.1487,-0.1481,-0.1487,-0.1483,-0.1472,-0.146,-0.1457,-0.1416,-0.1405,-0.1367,-0.1344,-0.1383,-0.1265,-0.1319,-0.1192,-0.1187,-0.1078,-0.1065,-0.123,-0.123,-0.123,-0.123,-0.1231,0,-0.1434,-0.1424,-0.145,-0.1445,-0.1427,-0.1451,-0.1427,-0.1431,-0.1425,-0.1393,-0.1414,-0.1378,-0.138,-0.1329,-0.131,-0.1195,-0.1231,-0.1139,-0.1135,-0.1076,-0.1065,-0.1303,-0.1312,-0.1227,-0.1228,-0.1229,-0.1229,0,-0.1379,-0.1403,-0.139,-0.1405,-0.1408,-0.1391,-0.1393,-0.1374,-0.1386,-0.135,-0.1346,-0.1338,-0.1258,-0.1231,-0.1164,-0.1132,-0.1049,-0.0998,-0.0927,-0.0912,-0.1013,-0.1024,-0.0848,-0.0843,-0.0839,-0.0835,-0.0832,0,-0.1344,-0.1337,-0.1349,-0.134,-0.1342,-0.1333,-0.1324,-0.1344,-0.1329,-0.1306,-0.1279,-0.1213,-0.1123,-0.0982,-0.0903,-0.0799,-0.0897,-0.0678,-0.0705,-0.0947,-0.0963,-0.098,-0.0996,-0.0584,-0.0579,-0.0576,-0.0573,0,-0.1265,-0.1276,-0.1265,-0.1254,-0.1247,-0.1234,-0.123,-0.1211,-0.1224,-0.1188,-0.1107,-0.103,-0.0895,-0.0721,-0.0601,-0.0551,-0.0689,-0.0593,-0.0838,-0.0688,-0.0689,-0.0708,-0.0734,-0.0539,-0.0542,-0.0545,-0.0546,-0.0548,-0.1193,-0.1168,-0.1162,-0.114,-0.1138,-0.111,-0.1059,-0.1061,-0.1001,-0.091,-0.0918,-0.0765,-0.0708,-0.0437,-0.0363,-0.0321,-0.0392,-0.0393,-0.0409,-0.0428,-0.0404,-0.0397,-0.0189,-0.019,-0.0191,-0.0192,-0.0193,0,-0.1082,-0.1066,-0.1046,-0.1013,-0.0972,-0.1006,-0.0969,-0.0894,-0.0786,-0.0719,-0.0616,-0.0448,-0.0293,-0.0252,-0.0107,-0.0065,-0.0125,-0.0076,-0.0163,-0.0193,-0.0221,-0.0193,0.0082,0.0082,0.0083,0.0083,0,0,-0.1018,-0.0958,-0.0951,-0.0849,-0.0829,-0.0728,-0.0679,-0.0592,-0.0515,-0.0355,-0.0267,-0.0243,-0.0212,-0.0074,-0.0019,0.0061,-0.008,0.0068,-0.0143,-0.0274,-0.0302,-0.0379,-0.0364,0,0,0,0,0]},{"header":{"parameterUnit":"m.s-1","parameterCategory":2,"la1":30.2991,"la2":30.254,"lo1":-89.0895,"lo2":-89.0444,"dy":0.0017,"dx":0.0017,"nx":28,"ny":28,"refTime":"2024-03-01T09:00:00:Z","depth":"2","parameterNumber":3,"parameterNumberName":"V-component_of_CURRENTS"},"data":[0,0,0,0,0,0,0,0,0,0,0,0,0,0,0,0,0,0,0,0,0,0,0,0,0,0,0,0,0,0,0,0,0,0,0,0,0,0,0,0,0,0,0,0,0,0,0,0,0,0,0,0,0,0,0,0,0,0,-0.0456,-0.0455,0,-0.0387,-0.0386,-0.0385,-0.0332,-0.0332,-0.0332,-0.0331,-0.0228,-0.0225,-0.0223,0,0,0,0,0,0,0,0,0,0,0,0,0,-0.0492,-0.0492,-0.0456,-0.0455,-0.0454,-0.0387,-0.0386,-0.0385,-0.0333,-0.0332,-0.0332,-0.0331,-0.0228,-0.0226,-0.0223,0,0,0,0,0,0,0,0,0,0,0,0,0,-0.0454,-0.0492,-0.0456,-0.0421,-0.0417,-0.0387,-0.0386,-0.0385,-0.0333,-0.0332,-0.0331,-0.0331,-0.0229,-0.0226,-0.0222,-0.0212,0,0,-0.0211,-0.021,0,0,0,0,0,0,0,0,-0.0456,-0.0453,-0.0427,-0.0423,-0.0419,-0.0369,-0.0361,-0.0326,-0.0333,-0.0363,-0.0331,-0.0331,-0.0273,-0.0266,-0.0253,-0.0207,-0.0203,-0.0211,-0.0209,-0.0207,-0.0206,0,0,0,0,0,0,0,-0.0459,-0.0455,-0.0427,-0.0426,-0.0421,-0.0392,-0.0386,-0.0354,-0.0321,-0.0361,-0.0357,-0.0351,-0.027,-0.0256,-0.025,-0.0201,-0.0211,-0.0208,-0.0206,-0.0204,-0.0117,-0.0117,0,0,0,0,0,0,-0.0473,-0.0458,-0.0429,-0.0425,-0.0438,-0.0392,-0.0385,-0.0384,-0.0322,-0.0312,-0.0352,-0.0349,-0.0263,-0.0254,-0.0246,-0.0213,-0.0207,-0.0204,-0.0202,-0.0117,-0.0117,-0.0117,0,0,0,0,0,0,-0.0474,-0.0472,-0.0432,-0.0441,-0.0434,-0.0392,-0.0391,-0.0383,-0.0369,-0.0316,-0.0305,-0.0346,-0.0262,-0.0251,-0.0217,-0.0209,-0.0202,-0.0199,-0.0118,-0.0117,-0.0117,-0.0158,0,0,0,0,0,0,-0.0476,-0.0473,-0.0476,-0.0442,-0.0434,-0.0417,-0.0392,-0.0383,-0.0367,-0.0362,-0.0307,-0.0296,-0.0261,-0.0223,-0.0214,-0.0204,-0.0196,-0.0118,-0.0117,-0.0117,-0.0157,-0.016,-0.0162,0,0,0,0,0,-0.0478,-0.0483,-0.0477,-0.0473,-0.0441,-0.0418,-0.0411,-0.0378,-0.0367,-0.0362,-0.0325,-0.0298,-0.0214,-0.022,-0.0209,-0.0199,-0.0118,-0.0118,-0.0117,-0.0156,-0.0159,-0.0162,0,0,0,0,0,0,-0.0496,-0.0477,-0.047,-0.0468,-0.0448,-0.0409,-0.0401,-0.0384,-0.0351,-0.0346,-0.0298,-0.0285,-0.025,-0.0223,-0.0231,-0.0173,-0.0161,-0.0158,-0.0194,-0.0196,-0.0199,-0.0205,-0.0193,0,0,0,0,0,-0.0505,-0.0507,-0.0481,-0.048,-0.0473,-0.0441,-0.0428,-0.0408,-0.0376,-0.0361,-0.0322,-0.028,-0.0241,-0.0219,-0.0181,-0.0154,-0.0128,-0.0139,-0.0142,-0.0144,-0.0142,-0.0104,-0.0103,-0.0116,-0.0116,-0.0116,0,0,-0.0511,-0.0502,-0.0502,-0.0485,-0.0466,-0.0455,-0.0431,-0.0415,-0.0401,-0.0355,-0.0324,-0.0287,-0.0236,-0.02,-0.0182,-0.0177,-0.0127,-0.0143,-0.0145,-0.0142,-0.0103,-0.0102,-0.0101,-0.0116,-0.0116,-0.0116,0,0,-0.0523,-0.0518,-0.0522,-0.051,-0.0489,-0.0468,-0.0468,-0.0434,-0.0413,-0.0385,-0.0344,-0.0308,-0.0251,-0.0211,-0.0184,-0.0178,-0.014,-0.0164,-0.0179,-0.0142,-0.0141,-0.014,-0.0111,-0.0107,-0.0165,-0.0165,-0.0165,0,-0.0531,-0.0532,-0.0518,-0.0517,-0.0506,-0.0478,-0.0474,-0.0451,-0.0408,-0.0387,-0.038,-0.029,-0.0255,-0.0202,-0.02,-0.0182,-0.0158,-0.0175,-0.0146,-0.0144,-0.0142,-0.0113,-0.0108,-0.0167,-0.0167,-0.0167,-0.0167,0,-0.0543,-0.0543,-0.0544,-0.0534,-0.0522,-0.0514,-0.0485,-0.0467,-0.0443,-0.0411,-0.036,-0.0312,-0.0258,-0.0241,-0.0219,-0.018,-0.0167,-0.0155,-0.0142,-0.0143,-0.0112,-0.0106,-0.017,-0.0169,-0.0169,-0.0168,0,0,-0.0561,-0.0554,-0.0554,-0.0552,-0.0531,-0.0521,-0.0501,-0.0466,-0.0445,-0.0405,-0.0371,-0.0311,-0.0285,-0.0253,-0.0218,-0.0188,-0.016,-0.017,-0.0167,-0.0148,-0.0083,-0.0053,-0.0043,-0.0142,-0.0141,-0.014,-0.0071,0,-0.0572,-0.0578,-0.0567,-0.0564,-0.0563,-0.0534,-0.0516,-0.0482,-0.0446,-0.0407,-0.0354,-0.0308,-0.0289,-0.0265,-0.0233,-0.0173,-0.0144,-0.018,-0.008,-0.0077,-0.0055,-0.0035,-0.0042,0.0022,-0.0064,-0.0063,-0.0062,0,-0.0587,-0.0588,-0.0594,-0.0577,-0.0572,-0.0567,-0.053,-0.0509,-0.0449,-0.0419,-0.037,-0.0325,-0.0271,-0.0261,-0.0166,-0.019,-0.0142,-0.0101,-0.0097,-0.0049,-0.0035,0.0011,0.0037,-0.0051,-0.0052,-0.0053,-0.0054,0,-0.061,-0.0604,-0.061,-0.0607,-0.0586,-0.058,-0.0563,-0.0514,-0.0486,-0.043,-0.0399,-0.033,-0.0291,-0.0225,-0.0141,-0.0153,-0.0036,-0.004,0.0033,0.0035,0.0061,0.0064,0.0026,0.0026,0.0026,0.0026,0.0026,0,-0.0628,-0.0631,-0.0625,-0.063,-0.0627,-0.0605,-0.0588,-0.0558,-0.0508,-0.0462,-0.0412,-0.0357,-0.028,-0.02,-0.0136,-0.0025,-0.0029,0.0039,0.0061,0.0046,0.0047,0.0008,0.0005,0.0028,0.0028,0.0027,0.0027,0,-0.0654,-0.0651,-0.0658,-0.0647,-0.0643,-0.0644,-0.0613,-0.0592,-0.0544,-0.0487,-0.0469,-0.0374,-0.0267,-0.0179,-0.0062,-0.0013,0.0084,0.0125,0.0098,0.0116,0.0125,0.0119,0.0205,0.0207,0.0208,0.0209,0.021,0,-0.0666,-0.0677,-0.068,-0.0684,-0.0683,-0.0677,-0.0667,-0.0621,-0.0587,-0.0481,-0.0447,-0.0338,-0.0229,-0.0054,0.0041,0.0162,0.0149,0.0218,0.0195,0.0134,0.0146,0.0138,0.013,0.0209,0.021,0.021,0.0211,0,-0.0687,-0.0695,-0.07,-0.0713,-0.0714,-0.0705,-0.0681,-0.0653,-0.0577,-0.0507,-0.038,-0.0285,-0.0121,0.0022,0.0156,0.0218,0.0194,0.0238,0.0199,0.0163,0.0143,0.0153,0.0144,0.0218,0.0217,0.0217,0.0216,0.0216,-0.0698,-0.071,-0.072,-0.0729,-0.0733,-0.0716,-0.0684,-0.0628,-0.0551,-0.0408,-0.0337,-0.0178,-0.0068,0.0141,0.0227,0.0281,0.0279,0.0289,0.0284,0.0279,0.0266,0.025,0.0342,0.0342,0.0342,0.0342,0.0342,0,-0.0699,-0.0713,-0.0728,-0.0734,-0.0736,-0.0733,-0.0674,-0.0604,-0.0484,-0.0365,-0.0227,-0.0077,0.0065,0.0163,0.0269,0.0338,0.0306,0.0336,0.0285,0.0279,0.0273,0.0257,0.0332,0.0332,0.0332,0.0332,0,0,-0.0697,-0.0712,-0.0721,-0.0727,-0.0729,-0.0686,-0.0637,-0.0515,-0.0401,-0.0229,-0.0125,-0.0023,0.0097,0.0164,0.0245,0.0297,0.0264,0.0291,0.0297,0.0223,0.0217,0.025,0.022,0,0,0,0,0]}],[{"header":{"parameterUnit":"m.s-1","parameterCategory":2,"la1":30.2991,"la2":30.254,"lo1":-89.0895,"lo2":-89.0444,"dy":0.0017,"dx":0.0017,"nx":28,"ny":28,"refTime":"2024-03-01T09:00:00:Z","depth":"4","parameterNumber":2,"parameterNumberName":"U-component_of_CURRENTS"},"data":[0,0,0,0,0,0,0,0,0,0,0,0,0,0,0,0,0,0,0,0,0,0,0,0,0,0,0,0,0,0,0,0,0,0,0,0,0,0,0,0,0,0,0,0,0,0,0,0,0,0,0,0,0,0,0,0,0,0,-0.0901,-0.0901,0,-0.0912,-0.0912,-0.0913,-0.0927,-0.0928,-0.0928,-0.0928,-0.0961,-0.0962,-0.0963,0,0,0,0,0,0,0,0,0,0,0,0,0,-0.0918,-0.0918,-0.0901,-0.0901,-0.0901,-0.0912,-0.0912,-0.0913,-0.0927,-0.0928,-0.0928,-0.0928,-0.0961,-0.0962,-0.0963,0,0,0,0,0,0,0,0,0,0,0,0,0,-0.0919,-0.0918,-0.0901,-0.0909,-0.0909,-0.0912,-0.0912,-0.0913,-0.0927,-0.0928,-0.0928,-0.0928,-0.0961,-0.0962,-0.0963,-0.0967,0,0,-0.0967,-0.0967,0,0,0,0,0,0,0,0,-0.0919,-0.0919,-0.0907,-0.0908,-0.0909,-0.0917,-0.0931,-0.0932,-0.0927,-0.0922,-0.0928,-0.0928,-0.0948,-0.095,-0.0953,-0.0968,-0.097,-0.0967,-0.0968,-0.0968,-0.0968,0,0,0,0,0,0,0,-0.0919,-0.0919,-0.0907,-0.0907,-0.0908,-0.092,-0.0921,-0.0931,-0.0935,-0.0922,-0.0923,-0.0922,-0.0949,-0.0952,-0.0954,-0.097,-0.0967,-0.0968,-0.0969,-0.0969,-0.1022,-0.1023,0,0,0,0,0,0,-0.0913,-0.0918,-0.0906,-0.0907,-0.0913,-0.092,-0.092,-0.0916,-0.0935,-0.0937,-0.0922,-0.0923,-0.095,-0.0953,-0.0956,-0.0991,-0.0968,-0.0969,-0.097,-0.1022,-0.1022,-0.1023,0,0,0,0,0,0,-0.0914,-0.0912,-0.0906,-0.0912,-0.0912,-0.0919,-0.0914,-0.0916,-0.0934,-0.0934,-0.0937,-0.0941,-0.095,-0.0954,-0.0977,-0.0991,-0.097,-0.0971,-0.1021,-0.1022,-0.1023,-0.1042,0,0,0,0,0,0,-0.0914,-0.0912,-0.0917,-0.0911,-0.0911,-0.0915,-0.0914,-0.0916,-0.0932,-0.0934,-0.0951,-0.0953,-0.0951,-0.0976,-0.0978,-0.0992,-0.0972,-0.102,-0.1021,-0.1022,-0.104,-0.1044,-0.1046,0,0,0,0,0,-0.0915,-0.0915,-0.0917,-0.0916,-0.0914,-0.0916,-0.0917,-0.0924,-0.0933,-0.0942,-0.0955,-0.0953,-0.0986,-0.0977,-0.098,-0.0995,-0.1019,-0.1021,-0.1022,-0.1039,-0.1043,-0.1046,0,0,0,0,0,0,-0.0927,-0.0916,-0.0918,-0.0916,-0.092,-0.0918,-0.0928,-0.0934,-0.0952,-0.0962,-0.0963,-0.0967,-0.0989,-0.0992,-0.0983,-0.1014,-0.1002,-0.1004,-0.1014,-0.1017,-0.102,-0.1008,-0.0973,0,0,0,0,0,-0.093,-0.093,-0.0923,-0.0926,-0.0928,-0.0934,-0.094,-0.0945,-0.0955,-0.0964,-0.0974,-0.0987,-0.0996,-0.1008,-0.1014,-0.1036,-0.1013,-0.1048,-0.1051,-0.1053,-0.1046,-0.1029,-0.1029,-0.1028,-0.1028,-0.1028,0,0,-0.0937,-0.0931,-0.0933,-0.093,-0.0935,-0.094,-0.0939,-0.0953,-0.0963,-0.0965,-0.0991,-0.0998,-0.1003,-0.1022,-0.1033,-0.103,-0.104,-0.1055,-0.1057,-0.1048,-0.103,-0.103,-0.103,-0.1029,-0.1029,-0.1029,0,0,-0.0946,-0.0946,-0.0948,-0.0951,-0.0958,-0.0959,-0.0967,-0.0975,-0.0986,-0.101,-0.101,-0.1021,-0.1049,-0.1043,-0.1046,-0.107,-0.1053,-0.1085,-0.1094,-0.1079,-0.1078,-0.1077,-0.1038,-0.1033,-0.1091,-0.1091,-0.1091,0,-0.0958,-0.0955,-0.0952,-0.0955,-0.096,-0.0969,-0.0978,-0.0988,-0.1006,-0.1014,-0.1024,-0.1047,-0.1051,-0.1057,-0.1067,-0.1074,-0.106,-0.108,-0.1081,-0.1079,-0.1078,-0.1038,-0.1033,-0.1092,-0.1092,-0.1092,-0.1092,0,-0.0962,-0.0968,-0.0972,-0.0975,-0.0982,-0.0993,-0.0999,-0.1017,-0.1036,-0.1042,-0.1062,-0.1066,-0.1075,-0.1084,-0.1085,-0.1085,-0.1075,-0.1082,-0.1068,-0.1079,-0.1036,-0.1031,-0.1093,-0.1093,-0.1093,-0.1092,0,0,-0.0965,-0.0974,-0.0978,-0.0983,-0.0996,-0.0999,-0.1019,-0.1031,-0.1043,-0.1066,-0.1077,-0.1089,-0.1092,-0.1094,-0.1096,-0.1087,-0.1063,-0.1089,-0.1088,-0.1043,-0.1016,-0.0942,-0.0928,-0.108,-0.1079,-0.1079,-0.0985,0,-0.0973,-0.0985,-0.0986,-0.1003,-0.1009,-0.1021,-0.1035,-0.1049,-0.1065,-0.1078,-0.1082,-0.1093,-0.1096,-0.1105,-0.1096,-0.1075,-0.1051,-0.1086,-0.1018,-0.1015,-0.0942,-0.092,-0.1077,-0.0981,-0.0979,-0.0978,-0.0978,0,-0.0969,-0.098,-0.1,-0.1013,-0.1018,-0.1032,-0.1053,-0.1065,-0.1079,-0.1092,-0.1101,-0.1104,-0.1093,-0.1098,-0.1051,-0.108,-0.1046,-0.1024,-0.102,-0.0938,-0.093,-0.0971,-0.0967,-0.0968,-0.0968,-0.0969,-0.097,0,-0.0962,-0.0983,-0.1003,-0.1009,-0.1029,-0.1046,-0.1058,-0.1075,-0.1078,-0.1098,-0.1101,-0.1098,-0.1088,-0.1062,-0.1015,-0.104,-0.0951,-0.0975,-0.0866,-0.086,-0.0948,-0.095,-0.0926,-0.0926,-0.0926,-0.0926,-0.0927,0,-0.0951,-0.0965,-0.1007,-0.1014,-0.1033,-0.105,-0.1065,-0.1079,-0.1091,-0.108,-0.1105,-0.1081,-0.1082,-0.1035,-0.1003,-0.0901,-0.0934,-0.0847,-0.0828,-0.0957,-0.0962,-0.0942,-0.0946,-0.0923,-0.0924,-0.0924,-0.0925,0,-0.0921,-0.0955,-0.0974,-0.1015,-0.1027,-0.1039,-0.1057,-0.1058,-0.1082,-0.1068,-0.1072,-0.1061,-0.0991,-0.0962,-0.0898,-0.0862,-0.0789,-0.0743,-0.0856,-0.0848,-0.0712,-0.0718,-0.0613,-0.061,-0.0607,-0.0604,-0.0602,0,-0.09,-0.0913,-0.0966,-0.0976,-0.0995,-0.1016,-0.1021,-0.105,-0.1043,-0.1033,-0.1013,-0.0962,-0.0939,-0.0769,-0.0766,-0.0676,-0.067,-0.0635,-0.0697,-0.0686,-0.0679,-0.0689,-0.0698,-0.0598,-0.0597,-0.0596,-0.0595,0,-0.0851,-0.0886,-0.09,-0.0926,-0.0944,-0.0949,-0.0962,-0.0947,-0.0962,-0.1002,-0.0909,-0.0849,-0.0759,-0.0695,-0.0622,-0.0571,-0.0669,-0.0605,-0.0612,-0.067,-0.0666,-0.0664,-0.0676,-0.0585,-0.0586,-0.0587,-0.0588,0,-0.0809,-0.081,-0.0838,-0.0846,-0.0871,-0.0856,-0.0876,-0.0847,-0.0839,-0.0843,-0.0803,-0.0744,-0.0739,-0.0635,-0.0572,-0.0511,-0.051,-0.0509,-0.0521,-0.0532,-0.0551,-0.0537,-0.038,0,0,0,0,0,-0.0751,-0.0738,-0.0747,-0.075,-0.0775,-0.0782,-0.0815,-0.0837,-0.0863,-0.0771,-0.0783,-0.0691,-0.0583,-0.0557,-0.0471,-0.0537,-0.0518,-0.0438,-0.0528,-0.0528,-0.054,-0.057,0,0,0,0,0,0,-0.0708,-0.0713,-0.0714,-0.0663,-0.0646,-0.0655,-0.0669,-0.0695,-0.065,-0.068,-0.0615,-0.0647,-0.0544,-0.0599,-0.045,-0.0443,-0.0486,-0.0418,-0.0416,-0.0521,-0.0532,-0.0542,-0.0577,0,0,0,0,0]},{"header":{"parameterUnit":"m.s-1","parameterCategory":2,"la1":30.2991,"la2":30.254,"lo1":-89.0895,"lo2":-89.0444,"dy":0.0017,"dx":0.0017,"nx":28,"ny":28,"refTime":"2024-03-01T09:00:00:Z","depth":"4","parameterNumber":3,"parameterNumberName":"V-component_of_CURRENTS"},"data":[0,0,0,0,0,0,0,0,0,0,0,0,0,0,0,0,0,0,0,0,0,0,0,0,0,0,0,0,0,0,0,0,0,0,0,0,0,0,0,0,0,0,0,0,0,0,0,0,0,0,0,0,0,0,0,0,0,0,-0.0349,-0.0349,0,-0.0334,-0.0334,-0.0334,-0.0321,-0.0321,-0.0321,-0.0321,-0.0301,-0.03,-0.03,0,0,0,0,0,0,0,0,0,0,0,0,0,-0.0341,-0.0342,-0.0349,-0.0348,-0.0348,-0.0334,-0.0334,-0.0334,-0.0321,-0.0321,-0.0321,-0.0321,-0.0301,-0.0301,-0.03,0,0,0,0,0,0,0,0,0,0,0,0,0,-0.0338,-0.0342,-0.0349,-0.034,-0.0339,-0.0334,-0.0334,-0.0334,-0.0321,-0.0321,-0.0321,-0.0321,-0.0301,-0.0301,-0.03,-0.0301,0,0,-0.0298,-0.0298,0,0,0,0,0,0,0,0,-0.0338,-0.0338,-0.0342,-0.0341,-0.034,-0.0329,-0.0324,-0.0323,-0.0321,-0.0328,-0.0321,-0.032,-0.031,-0.0309,-0.0307,-0.03,-0.0299,-0.0298,-0.0298,-0.0298,-0.0297,0,0,0,0,0,0,0,-0.0338,-0.0338,-0.0343,-0.0341,-0.034,-0.0329,-0.0328,-0.0324,-0.0321,-0.0328,-0.0327,-0.0325,-0.0309,-0.0307,-0.0306,-0.0299,-0.0298,-0.0298,-0.0297,-0.0297,-0.0283,-0.0283,0,0,0,0,0,0,-0.0342,-0.0339,-0.0344,-0.0343,-0.0338,-0.0329,-0.0329,-0.0333,-0.0321,-0.0319,-0.0325,-0.0324,-0.0308,-0.0307,-0.0305,-0.0295,-0.0298,-0.0297,-0.0297,-0.0283,-0.0283,-0.0283,0,0,0,0,0,0,-0.0342,-0.0342,-0.0344,-0.034,-0.0339,-0.033,-0.0335,-0.0333,-0.0334,-0.0319,-0.0317,-0.0329,-0.0308,-0.0306,-0.0306,-0.0294,-0.0297,-0.0296,-0.0283,-0.0283,-0.0283,-0.0281,0,0,0,0,0,0,-0.0342,-0.0343,-0.035,-0.034,-0.034,-0.0346,-0.0335,-0.0333,-0.0333,-0.0332,-0.0321,-0.0319,-0.0308,-0.0307,-0.0305,-0.0294,-0.0296,-0.0283,-0.0283,-0.0283,-0.0281,-0.0281,-0.0281,0,0,0,0,0,-0.0341,-0.0351,-0.0351,-0.0351,-0.035,-0.0346,-0.0345,-0.0337,-0.0334,-0.0337,-0.033,-0.0319,-0.0305,-0.0307,-0.0305,-0.0293,-0.0283,-0.0283,-0.0283,-0.0281,-0.0281,-0.0281,0,0,0,0,0,0,-0.035,-0.035,-0.035,-0.0359,-0.0355,-0.0344,-0.0347,-0.0342,-0.0339,-0.034,-0.0325,-0.0322,-0.0317,-0.0309,-0.0312,-0.0289,-0.029,-0.029,-0.0289,-0.0289,-0.0289,-0.0271,-0.0295,0,0,0,0,0,-0.0357,-0.0366,-0.036,-0.0368,-0.0368,-0.036,-0.0359,-0.0354,-0.0348,-0.0346,-0.0338,-0.0327,-0.0314,-0.0307,-0.0301,-0.0291,-0.0261,-0.0281,-0.0281,-0.0281,-0.0266,-0.0209,-0.0201,-0.0283,-0.0283,-0.0283,0,0,-0.0363,-0.0364,-0.0369,-0.0371,-0.0368,-0.0367,-0.0359,-0.0361,-0.0355,-0.0345,-0.034,-0.0332,-0.0315,-0.0302,-0.0298,-0.0294,-0.0245,-0.0281,-0.0281,-0.0265,-0.0208,-0.0199,-0.0192,-0.0283,-0.0283,-0.0283,0,0,-0.0373,-0.0381,-0.0388,-0.0387,-0.0387,-0.0379,-0.0381,-0.0374,-0.0368,-0.0367,-0.0351,-0.0331,-0.033,-0.0297,-0.0284,-0.0278,-0.0251,-0.0286,-0.0262,-0.0207,-0.0199,-0.0192,-0.0153,-0.0143,-0.0279,-0.0279,-0.0279,0,-0.038,-0.0387,-0.0389,-0.0393,-0.039,-0.0385,-0.0385,-0.0378,-0.0371,-0.0354,-0.0369,-0.0326,-0.0318,-0.0268,-0.0269,-0.0274,-0.0248,-0.0265,-0.0205,-0.0197,-0.0189,-0.0151,-0.0139,-0.0279,-0.0279,-0.0279,-0.0279,0,-0.0391,-0.0397,-0.0402,-0.0403,-0.0401,-0.0402,-0.0391,-0.0385,-0.0381,-0.0363,-0.0329,-0.0313,-0.0277,-0.0275,-0.0274,-0.0213,-0.0215,-0.0216,-0.0202,-0.018,-0.0143,-0.013,-0.0278,-0.0278,-0.0278,-0.0278,0,0,-0.0402,-0.0407,-0.041,-0.0407,-0.0406,-0.0402,-0.039,-0.0364,-0.0339,-0.0332,-0.0288,-0.0265,-0.0245,-0.0228,-0.0212,-0.0166,-0.0103,-0.0172,-0.0169,-0.0127,0.001,-0.0036,-0.0026,-0.0094,-0.0092,-0.009,0.0011,0,-0.0408,-0.0416,-0.0414,-0.0412,-0.0412,-0.0398,-0.0382,-0.0358,-0.0335,-0.0295,-0.0255,-0.0221,-0.0229,-0.0211,-0.0164,-0.0121,-0.0068,-0.013,-0.0022,-0.0019,-0.0055,-0.0013,-0.0083,0.0021,0.0024,0.0026,0.0027,0,-0.0417,-0.0419,-0.0425,-0.0406,-0.0403,-0.0402,-0.0361,-0.0345,-0.0285,-0.0264,-0.0211,-0.0183,-0.0114,-0.0132,-0.0023,-0.0065,-0.0023,0.001,0.0015,-0.0015,-0.004,-0.0002,0.005,0.0048,0.0047,0.0045,0.0044,0,-0.0424,-0.0422,-0.0426,-0.0425,-0.0408,-0.04,-0.0385,-0.0337,-0.0307,-0.0239,-0.0207,-0.0126,-0.0089,-0.0018,0.0028,0.0013,0.0142,0.0134,0.0142,0.0138,0.0148,0.0139,0.0231,0.0231,0.0231,0.023,0.023,0,-0.0427,-0.0429,-0.0433,-0.0437,-0.0427,-0.041,-0.0381,-0.0351,-0.0292,-0.0246,-0.0193,-0.0142,-0.0059,0.0012,0.0059,0.013,0.0171,0.0164,0.0171,0.0142,0.0132,0.0156,0.0146,0.0234,0.0233,0.0233,0.0232,0,-0.0437,-0.0442,-0.0447,-0.0439,-0.0437,-0.0433,-0.0396,-0.0365,-0.0313,-0.025,-0.0229,-0.0137,-0.0052,0.0023,0.0139,0.0161,0.0237,0.0253,0.0211,0.0212,0.0193,0.0182,0.0295,0.0294,0.0294,0.0293,0.0293,0,-0.044,-0.0449,-0.0461,-0.0465,-0.0467,-0.0454,-0.044,-0.0389,-0.0351,-0.025,-0.0218,-0.0122,-0.0064,0.0078,0.014,0.0243,0.0243,0.0284,0.025,0.0209,0.0205,0.0194,0.0184,0.0292,0.0292,0.0292,0.0292,0,-0.0443,-0.046,-0.0466,-0.0482,-0.0483,-0.0468,-0.0443,-0.041,-0.034,-0.0294,-0.0189,-0.0109,-0.0015,0.0076,0.0146,0.0215,0.0259,0.028,0.0281,0.025,0.0207,0.0201,0.0192,0.029,0.0291,0.0291,0.0291,0,-0.0447,-0.0458,-0.0477,-0.0484,-0.0492,-0.0477,-0.0458,-0.0399,-0.035,-0.0237,-0.0208,-0.0098,-0.0029,0.0062,0.0128,0.0186,0.02,0.0215,0.022,0.0223,0.0152,0.0083,0.0156,0,0,0,0,0,-0.0442,-0.0454,-0.0468,-0.0478,-0.0491,-0.049,-0.0454,-0.0425,-0.0357,-0.0285,-0.0238,-0.015,-0.003,0.0027,0.008,0.01,0.0191,0.0161,0.0205,0.0282,0.0283,0.0206,0,0,0,0,0,0,-0.0437,-0.0458,-0.0466,-0.0475,-0.0481,-0.0483,-0.046,-0.0415,-0.0361,-0.0289,-0.0222,-0.016,-0.0047,-0.0067,0.0072,0.0091,0.0122,0.0224,0.0225,0.0281,0.0282,0.0284,0.0205,0,0,0,0,0]}]]